Weather History for Milton, FL

Change the Weather History Date:

Tuesday, November 22, 2011

  Actual Average (KNSE) Record (KNSE)
Temperature  
Mean Temperature 70 °F -  
Max Temperature 78 °F 66 °F 79 °F (2011)
Min Temperature 62 °F 47 °F 26 °F (2000)
Cooling Degree Days 5    
Growing Degree Days 20 (Base 50)    
Moisture  
Dew Point 68 °F    
Average Humidity 93    
Maximum Humidity 100    
Minimum Humidity 76    
Precipitation  
Precipitation 0.05 in - - ()
Sea Level Pressure  
Sea Level Pressure 30.03 in    
Wind  
Wind Speed 5 mph (SSE)    
Max Wind Speed 16 mph    
Max Gust Speed 29 mph    
Visibility 7 miles    
Events Fog , Rain , Thunderstorm    
Averages and records for this station are not official NWS values.
T = Trace of Precipitation, MM = Missing Value Source: NWS Daily Summary

Daily Weather History Graph

Daily Weather History Graph

Search for Another Location

Airport:

Trip Planner

Search our weather history database for the weather conditions in past years. The results will help you decide how hot, cold, wet, or windy it might be!

Date:

Astronomy

Nov. 22, 2011 Rise Set
Actual Time 6:20 AM CST 4:47 PM CST
Civil Twilight 5:54 AM CST 5:13 PM CST
Nautical Twilight 5:24 AM CST 5:43 PM CST
Astronomical Twilight 4:56 AM CST 6:12 PM CST
Moon 3:18 AM CST 2:40 PM CST
Length of Visible Light 11h 19m
Length of Day
10h 27m
Waning Crescent, 9% of the Moon is Illuminated
Nov 22
Waning Crescent
Nov 25
New
Dec 2
First Quarter
Dec 10
Full
Dec 17
Last Quarter

Hourly Weather History & Observations

Time (CST) Temp. Dew Point Humidity Pressure Visibility Wind Dir Wind Speed Gust Speed Precip Events Conditions
12:56 AM 63.0 °F 62.1 °F 97% 30.05 in 0.5 mi ESE 3.5 mph - N/A Fog Fog
1:56 AM 63.0 °F 62.1 °F 97% 30.05 in 0.2 mi East 3.5 mph - N/A Fog Fog
2:56 AM 63.0 °F 62.1 °F 97% 30.05 in 0.8 mi Calm Calm - N/A   Mist
3:07 AM 62.6 °F 62.6 °F 100% 30.08 in 1.0 mi Calm Calm - N/A   Overcast
3:28 AM 62.6 °F 62.6 °F 100% 30.08 in 3.0 mi Calm Calm - N/A   Overcast
3:49 AM 62.6 °F 62.6 °F 100% 30.07 in 10.0 mi East 3.5 mph - N/A   Mostly Cloudy
3:56 AM 63.0 °F 62.1 °F 97% 30.03 in 10.0 mi East 3.5 mph - N/A   Mostly Cloudy
4:03 AM 62.6 °F 60.8 °F 94% 30.07 in 10.0 mi ESE 3.5 mph - N/A   Mostly Cloudy
4:46 AM 62.6 °F 62.6 °F 100% 30.07 in 10.0 mi ESE 8.1 mph - N/A   Mostly Cloudy
4:56 AM 63.0 °F 62.1 °F 97% 30.03 in 10.0 mi SE 6.9 mph - N/A   Overcast
5:25 AM 62.6 °F 62.6 °F 100% 30.07 in 10.0 mi SE 4.6 mph - N/A   Mostly Cloudy
6:56 AM 64.9 °F 64.0 °F 97% 30.04 in 10.0 mi ESE 4.6 mph - N/A   Mostly Cloudy
7:27 AM 66.2 °F 64.4 °F 94% 30.09 in 10.0 mi SE 4.6 mph - N/A   Mostly Cloudy
7:56 AM 66.9 °F 66.0 °F 97% 30.06 in 10.0 mi SE 5.8 mph - N/A   Overcast
8:29 AM 68.0 °F 66.2 °F 94% 30.11 in 10.0 mi SE 3.5 mph - N/A   Overcast
8:56 AM 70.0 °F 68.0 °F 93% 30.08 in 10.0 mi SE 4.6 mph - N/A   Overcast
9:07 AM 71.6 °F 68.0 °F 88% 30.11 in 10.0 mi SSE 5.8 mph - N/A   Overcast
9:56 AM 73.9 °F 71.1 °F 91% 30.06 in 10.0 mi South 5.8 mph - 0.00 in   Overcast
10:04 AM 73.4 °F 69.8 °F 88% 30.10 in 10.0 mi South 8.1 mph - N/A   Overcast
10:54 AM 77.0 °F 69.8 °F 78% 30.07 in 10.0 mi South 15.0 mph 20.7 mph 0.00 in   Overcast
10:56 AM 78.1 °F 70.0 °F 76% 30.04 in 10.0 mi South 13.8 mph - 0.00 in   Overcast
11:56 AM 77.0 °F 70.0 °F 79% 30.00 in 10.0 mi South 16.1 mph 28.8 mph N/A   Overcast
12:56 PM 77.0 °F 70.0 °F 79% 29.98 in 10.0 mi South 13.8 mph 20.7 mph N/A   Overcast
1:56 PM 78.1 °F 70.0 °F 76% 29.97 in 10.0 mi SSW 11.5 mph 21.9 mph N/A   Mostly Cloudy
2:45 PM 77.0 °F 69.8 °F 78% 30.00 in 10.0 mi SSW 13.8 mph 21.9 mph N/A   Mostly Cloudy
2:56 PM 77.0 °F 69.1 °F 76% 29.96 in 10.0 mi SSW 8.1 mph 17.3 mph N/A   Scattered Clouds
3:56 PM 75.9 °F 70.0 °F 82% 29.95 in 10.0 mi SSW 10.4 mph 18.4 mph N/A   Partly Cloudy
4:09 PM 75.2 °F 69.8 °F 83% 29.99 in 10.0 mi SSW 9.2 mph 18.4 mph N/A Thunderstorm Thunderstorm
4:16 PM 75.2 °F 69.8 °F 83% 30.00 in 10.0 mi Variable 6.9 mph 17.3 mph N/A Thunderstorm Thunderstorm
4:22 PM 75.2 °F 69.8 °F 83% 30.00 in 10.0 mi SSW 10.4 mph 16.1 mph N/A   Mostly Cloudy
4:53 PM 73.4 °F 71.6 °F 94% 30.01 in 10.0 mi SW 6.9 mph 16.1 mph 0.03 in Rain Light Rain
4:56 PM 73.0 °F 70.0 °F 90% 29.97 in 10.0 mi Variable 5.8 mph - 0.03 in   Overcast
5:56 PM 71.1 °F 69.1 °F 93% 29.98 in 10.0 mi Variable 3.5 mph - N/A   Mostly Cloudy
6:56 PM 71.1 °F 70.0 °F 96% 29.99 in 10.0 mi Calm Calm - N/A   Scattered Clouds
7:52 PM 69.8 °F 69.8 °F 100% 30.02 in 2.5 mi SSE 4.6 mph - N/A   Scattered Clouds
7:56 PM 69.1 °F 69.1 °F 100% 29.98 in 1.0 mi Calm Calm - N/A   Mist
8:04 PM 69.8 °F 69.8 °F 100% 30.02 in 0.5 mi South 3.5 mph - N/A Fog Fog
8:41 PM 69.8 °F 69.8 °F 100% 30.03 in 1.8 mi Calm Calm - N/A   Overcast
8:45 PM 69.8 °F 69.8 °F 100% 30.02 in 3.0 mi Calm Calm - N/A   Overcast
8:56 PM 70.0 °F 70.0 °F 100% 30.00 in 2.0 mi Calm Calm - N/A   Overcast
9:18 PM 71.6 °F 69.8 °F 94% 30.04 in 4.0 mi SSW 4.6 mph - N/A   Overcast
9:56 PM 71.1 °F 70.0 °F 96% 30.00 in 8.0 mi Calm Calm - N/A   Mostly Cloudy
10:04 PM 69.8 °F 69.8 °F 100% 30.04 in 8.0 mi Calm Calm - N/A   Mostly Cloudy
10:30 PM 69.8 °F 69.8 °F 100% 30.04 in 8.0 mi Calm Calm - N/A   Mostly Cloudy
10:56 PM 70.0 °F 69.1 °F 97% 30.00 in 6.0 mi SSW 4.6 mph - N/A   Overcast
11:20 PM 69.8 °F 69.8 °F 100% 30.03 in 5.0 mi Calm Calm - 0.01 in Rain Light Rain
11:26 PM 69.8 °F 69.8 °F 100% 30.03 in 1.8 mi Calm Calm - 0.01 in Rain Light Rain
11:40 PM 69.8 °F 69.8 °F 100% 30.05 in 1.2 mi Calm Calm - 0.01 in Rain Light Rain
11:52 PM 69.8 °F 69.8 °F 100% 30.06 in 2.5 mi WSW 3.5 mph - 0.02 in Rain Light Rain
11:54 PM 69.8 °F 69.8 °F 100% 30.06 in 3.0 mi Calm Calm - 0.02 in Rain Light Rain
11:56 PM 70.0 °F 69.1 °F 97% 30.01 in 4.0 mi Variable 3.5 mph - 0.02 in Rain Light Rain